Regional Weather Roundup
Issued by NWS

Home | Current Version | Previous Version | Text Only | Print | Product List | Glossary On
Versions: 1 2 3 4 5 6 7 8 9 10 11 12 13 14 15 16 17 18 19 20 21 22 23 24 25 26 27 28 29 30 31 32 33 34 35 36 37 38 39 40 41 42 43 44 45 46 47 48 49 50
000
ASUS45 KCYS 280510
RWRWY

WYOMING REGIONAL WEATHER ROUNDUP
NATIONAL WEATHER SERVICE CHEYENNE WY
1100 PM MDT MON MAR 27 2017

NOTE:  "FAIR" INDICATES FEW OR NO CLOUDS BELOW 12,000 FEET
WITH NO SIGNIFICANT WEATHER AND/OR OBSTRUCTIONS TO VISIBILITY.

WYZ001-280600-
YELLOWSTONE NATIONAL PARK

CITY           SKY/WX    TMP DP  RH WIND       PRES   REMARKS
LK YELLOWSTONE   N/A     28  27  96 CALM      30.03R
W YELLOWSTONE  NOT AVBL

$$
WYZ002>013-054>058-071-098>099-280600-
NORTHERN WYOMING

CITY           SKY/WX    TMP DP  RH WIND       PRES   REMARKS
JACKSON        MOCLDY    34  32  93 NE5       30.00R WCI  30
CODY           MOCLDY    42  34  73 NW10      29.98R
GREYBULL       FAIR      47  34  60 NW24      29.88S
WORLAND        CLOUDY    49  34  56 N15       29.90R
SHERIDAN       FAIR      44  36  73 NE6       29.93R
BUFFALO        CLOUDY    44  34  67 W6        29.94S
GILLETTE       FAIR      36  32  85 W5        29.91R WCI  32
HULETT         FAIR      43  36  75 CALM      29.93R
NEWCASTLE      FAIR      46  32  57 E20G25    29.90R

$$
WYZ014>020-022>026-101>103-280600-
CENTRAL WYOMING

CITY           SKY/WX    TMP DP  RH WIND       PRES   REMARKS
BIG PINEY      CLOUDY    35  29  78 N10       29.96R WCI  27
PINEDALE       FLURRIES  34  32  93 NW9       29.96R WCI  26
DUBOIS         LGT SNOW  32  30  93 CALM      29.96R VSB 1
LANDER         LGT RAIN  43  33  68 W5        29.90R
RIVERTON       LGT RAIN  45  33  63 E8        29.91R
CASPER         MOCLDY    45  29  53 N9        29.87R
DOUGLAS        MOCLDY    48  33  56 E17       29.87S

$$
WYZ021-027>030-104>119-280600-
SOUTHERN WYOMING

CITY           SKY/WX    TMP DP  RH WIND       PRES   REMARKS
EVANSTON       LGT SNOW  32  29  88 N15       29.96F FOG     WCI  22
KEMMERER         N/A     32  30  93 NW18G24   29.95S WCI  20
ROCK SPRINGS   LGT RAIN  36  33  89 N8        29.90S WCI  30
DIXON            N/A     38  35  89 NE7       29.88F WCI  32
RAWLINS        CLOUDY    37  35  92 CALM      29.90S
SARATOGA       FAIR      32  32 100 CALM      29.91S
LARAMIE        FAIR      33  32  96 N5        29.88F WCI  29
CHEYENNE       CLOUDY    42  38  85 CALM      29.88R
TORRINGTON     RAIN      47  45  93 SE3       29.89R FOG
PINE BLUFFS    CLOUDY    46  39  76 S18G30    29.89R

$$



USA.gov is the U.S. government's official web portal to all federal, state and local government web resources and services.